• In Germany
  • List of Countries
  • For 7 days
  • Water Temperature
  • Satellite Maps
  • Weather Map
  • Weather Widgets
  • user-avatar
    Login

    Hourly Weather Varvarinskiy

    Today, 23 April, Monday

    Time Temperature Precipitation Wind Pressure Humidity
    00:00 +2°C° 0 mm 2 mps 661 mmHg 70%
    01:00 +2°C° 0 mm 2 mps 660 mmHg 71%
    02:00 +1°C° 0 mm 2 mps 660 mmHg 71%
    03:00 +1°C° 0 mm 2 mps 660 mmHg 71%
    04:00 -1°C° 0 mm 2 mps 660 mmHg 71%
    05:00 +2°C° 0 mm 2 mps 660 mmHg 66%
    06:00 +3°C° 0 mm 3 mps 660 mmHg 61%
    07:00 +4°C° 0 mm 3 mps 660 mmHg 56%
    08:00 +6°C° 0 mm 4 mps 660 mmHg 51%
    09:00 +8°C° 0 mm 4 mps 660 mmHg 46%
    10:00 +9°C° 0 mm 5 mps 660 mmHg 41%
    11:00 +10°C° 0 mm 5 mps 660 mmHg 38%
    12:00 +11°C° 0 mm 6 mps 660 mmHg 35%
    13:00 +11°C° 0 mm 6 mps 660 mmHg 33%
    14:00 +12°C° 0 mm 5 mps 660 mmHg 33%
    15:00 +12°C° 0 mm 5 mps 660 mmHg 34%
    16:00 +12°C° 0 mm 5 mps 660 mmHg 35%
    17:00 +10°C° 0 mm 4 mps 659 mmHg 42%
    18:00 +8°C° 0 mm 3 mps 659 mmHg 49%
    19:00 +6°C° 0 mm 2 mps 659 mmHg 55%
    20:00 +5°C° 0 mm 2 mps 659 mmHg 57%
    21:00 +4°C° 0 mm 2 mps 659 mmHg 59%
    22:00 +4°C° 0 mm 2 mps 659 mmHg 62%
    23:00 +4°C° 0 mm 2 mps 658 mmHg 63%

    Tomorrow, 24 April, Tuesday

    Time Temperature Precipitation Wind Pressure Humidity
    00:00 +3°C° 0 mm 2 mps 658 mmHg 64%
    01:00 +3°C° 0 mm 2 mps 658 mmHg 65%
    02:00 +3°C° 0 mm 2 mps 658 mmHg 66%
    03:00 +3°C° 0 mm 2 mps 658 mmHg 67%
    04:00 +2°C° 0 mm 2 mps 657 mmHg 68%
    05:00 +4°C° 0 mm 2 mps 657 mmHg 64%
    06:00 +5°C° 0 mm 3 mps 658 mmHg 59%
    07:00 +8°C° 0 mm 3 mps 658 mmHg 54%
    08:00 +8°C° 0 mm 4 mps 657 mmHg 48%
    09:00 +11°C° 0 mm 4 mps 657 mmHg 41%
    10:00 +13°C° 0 mm 5 mps 657 mmHg 35%
    11:00 +14°C° 0 mm 6 mps 657 mmHg 33%
    12:00 +15°C° 0 mm 7 mps 656 mmHg 31%
    13:00 +16°C° 0 mm 8 mps 655 mmHg 30%
    14:00 +16°C° 0 mm 7 mps 655 mmHg 32%
    15:00 +16°C° 0 mm 7 mps 654 mmHg 33%
    16:00 +15°C° 0 mm 6 mps 653 mmHg 35%
    17:00 +13°C° 0 mm 5 mps 653 mmHg 41%
    18:00 +11°C° 0 mm 3 mps 652 mmHg 47%
    19:00 +9°C° 0 mm 2 mps 651 mmHg 53%
    20:00 +8°C° 0 mm 2 mps 651 mmHg 53%
    21:00 +7°C° 0 mm 2 mps 651 mmHg 53%
    22:00 +7°C° 0 mm 2 mps 651 mmHg 54%
    23:00 +6°C° 0 mm 2 mps 652 mmHg 56%

    Day after tomorrow, 25 April, Wednesday

    Time Temperature Precipitation Wind Pressure Humidity
    00:00 +6°C° 0 mm 2 mps 652 mmHg 57%
    01:00 +6°C° 0 mm 2 mps 652 mmHg 59%
    02:00 +5°C° 0 mm 2 mps 653 mmHg 65%
    03:00 +4°C° 0 mm 2 mps 653 mmHg 71%
    04:00 +3°C° 0 mm 2 mps 653 mmHg 77%
    05:00 +3°C° 0 mm 3 mps 654 mmHg 75%
    06:00 +3°C° 0 mm 3 mps 655 mmHg 74%
    07:00 +3°C° 0 mm 3 mps 656 mmHg 73%
    08:00 +3°C° 0.1 mm 4 mps 656 mmHg 67%
    09:00 +4°C° 0.1 mm 4 mps 656 mmHg 62%
    10:00 +4°C° 0.1 mm 4 mps 657 mmHg 56%
    11:00 +5°C° 0 mm 4 mps 657 mmHg 49%
    12:00 +6°C° 0 mm 4 mps 657 mmHg 42%
    13:00 +8°C° 0 mm 3 mps 658 mmHg 35%
    14:00 +8°C° 0 mm 3 mps 658 mmHg 33%
    15:00 +8°C° 0 mm 3 mps 658 mmHg 31%
    16:00 +8°C° 0 mm 3 mps 658 mmHg 29%
    17:00 +6°C° 0 mm 2 mps 657 mmHg 33%
    18:00 +4°C° 0 mm 2 mps 657 mmHg 37%
    19:00 +3°C° 0 mm 1 mps 657 mmHg 42%
    20:00 +3°C° 0 mm 1 mps 657 mmHg 43%
    21:00 +2°C° 0 mm 1 mps 658 mmHg 44%
    22:00 0°C° 0 mm 0 mps 658 mmHg 45%
    23:00 0°C° 0 mm 0 mps 658 mmHg 45%

    26 April, Thursday

    Time Temperature Precipitation Wind Pressure Humidity
    00:00 0°C° 0 mm 0 mps 658 mmHg 45%
    01:00 0°C° 0 mm 0 mps 658 mmHg 45%
    02:00 +1°C° 0 mm 1 mps 658 mmHg 45%
    03:00 +1°C° 0 mm 1 mps 657 mmHg 45%
    04:00 +1°C° 0 mm 1 mps 657 mmHg 45%
    05:00 +2°C° 0 mm 1 mps 658 mmHg 43%
    06:00 +4°C° 0 mm 1 mps 658 mmHg 40%
    07:00 +4°C° 0 mm 2 mps 658 mmHg 38%
    08:00 +6°C° 0 mm 2 mps 658 mmHg 35%
    09:00 +8°C° 0 mm 2 mps 658 mmHg 32%
    10:00 +10°C° 0 mm 3 mps 658 mmHg 29%
    11:00 +11°C° 0 mm 3 mps 658 mmHg 29%
    12:00 +12°C° 0 mm 4 mps 657 mmHg 30%
    13:00 +13°C° 0 mm 5 mps 657 mmHg 30%
    14:00 +13°C° 0 mm 5 mps 657 mmHg 33%
    15:00 +13°C° 0 mm 5 mps 657 mmHg 36%
    16:00 +13°C° 0 mm 5 mps 656 mmHg 38%
    17:00 +12°C° 0 mm 4 mps 656 mmHg 46%
    18:00 +10°C° 0 mm 3 mps 656 mmHg 54%
    19:00 +8°C° 0 mm 3 mps 655 mmHg 62%
    20:00 +7°C° 0 mm 2 mps 655 mmHg 65%
    21:00 +7°C° 0 mm 2 mps 655 mmHg 68%
    22:00 +6°C° 0 mm 2 mps 655 mmHg 71%
    23:00 +6°C° 0 mm 2 mps 655 mmHg 72%

    27 April, Friday

    Time Temperature Precipitation Wind Pressure Humidity
    00:00 +6°C° 0 mm 1 mps 655 mmHg 73%
    01:00 +6°C° 0 mm 1 mps 655 mmHg 74%
    02:00 +6°C° 0 mm 1 mps 654 mmHg 74%
    03:00 +5°C° 0 mm 1 mps 654 mmHg 75%
    04:00 +5°C° 0 mm 1 mps 654 mmHg 75%
    05:00 +5°C° 0 mm 2 mps 654 mmHg 67%
    06:00 +7°C° 0 mm 3 mps 655 mmHg 60%
    07:00 +8°C° 0 mm 3 mps 655 mmHg 53%
    08:00 +8°C° 0 mm 4 mps 655 mmHg 48%
    09:00 +9°C° 0 mm 5 mps 655 mmHg 44%
    10:00 +10°C° 0 mm 7 mps 655 mmHg 40%
    11:00 +10°C° 0 mm 7 mps 655 mmHg 35%
    12:00 +10°C° 0 mm 8 mps 655 mmHg 31%
    13:00 +11°C° 0 mm 9 mps 655 mmHg 27%
    14:00 +10°C° 0 mm 9 mps 655 mmHg 27%
    15:00 +7°C° 0 mm 9 mps 656 mmHg 28%
    16:00 +6°C° 0 mm 9 mps 656 mmHg 28%
    17:00 +5°C° 0 mm 7 mps 656 mmHg 33%
    18:00 +3°C° 0 mm 6 mps 656 mmHg 37%
    19:00 +1°C° 0 mm 4 mps 656 mmHg 42%
    20:00 0°C° 0 mm 4 mps 657 mmHg 46%
    21:00 +1°C° 0 mm 3 mps 657 mmHg 50%
    22:00 +1°C° 0 mm 2 mps 657 mmHg 54%
    23:00 -1°C° 0 mm 2 mps 657 mmHg 56%

    28 April, Saturday

    Time Temperature Precipitation Wind Pressure Humidity
    00:00 -1°C° 0 mm 2 mps 657 mmHg 57%
    01:00 -2°C° 0 mm 2 mps 657 mmHg 59%
    02:00 0°C° 0 mm 1 mps 657 mmHg 60%
    03:00 0°C° 0 mm 1 mps 657 mmHg 61%
    04:00 -1°C° 0 mm 1 mps 657 mmHg 62%
    05:00 +1°C° 0 mm 1 mps 657 mmHg 55%
    06:00 +2°C° 0 mm 1 mps 658 mmHg 48%
    07:00 +4°C° 0 mm 1 mps 658 mmHg 41%
    08:00 +4°C° 0 mm 2 mps 658 mmHg 38%
    09:00 +5°C° 0 mm 2 mps 657 mmHg 34%
    10:00 +6°C° 0 mm 2 mps 657 mmHg 31%
    11:00 +5°C° 0 mm 3 mps 657 mmHg 30%
    12:00 +7°C° 0 mm 3 mps 656 mmHg 29%
    13:00 +7°C° 0 mm 3 mps 656 mmHg 28%
    14:00 +7°C° 0 mm 3 mps 656 mmHg 29%
    15:00 +5°C° 0 mm 3 mps 655 mmHg 31%
    16:00 +5°C° 0 mm 3 mps 655 mmHg 32%
    17:00 +4°C° 0 mm 3 mps 655 mmHg 36%
    18:00 +3°C° 0 mm 3 mps 655 mmHg 40%
    19:00 +2°C° 0 mm 3 mps 655 mmHg 44%
    20:00 +1°C° 0 mm 3 mps 655 mmHg 47%
    21:00 +2°C° 0 mm 2 mps 655 mmHg 50%
    22:00 +1°C° 0 mm 2 mps 655 mmHg 53%
    23:00 +1°C° 0 mm 2 mps 655 mmHg 54%
    Show more